EA1AML-1 Vega de Espinareda ES current weather conditions

sailwx.info

Wind from 188 at 3 knots gusting 4

Air temperature 18.3° C
Dewpoint 10.4° C

Last reported at 2017-May-29 12:10 UTC.
Time now 2017-May-29 13:06 UTC

Location: N 42°43' W 006°39'.
View on Google Maps.

See reports from other nearby stations

  
Tides and Currents Weather Stations Pressure Air Temp Water Temp Dewpoint Dewpoint Depression Visibility Wind Speed Wind Dir Waves Ship Positions
date/time (UTC)wind fromknots sea level pressurealtimeterstation pressurevisibilityair tempwater tempwave heightnotes
2017-May-29 12:10 188 3 gusting 4 18.3
2017-May-29 12:01 240 1 gusting 5 18.3
2017-May-29 11:52 255 1 gusting 6 18.3
2017-May-29 11:43 296 3 gusting 5 19.4
2017-May-29 11:34 237 0 gusting 3 19.4
2017-May-29 11:25 149 0 gusting 2 19.4
2017-May-29 11:16 116 1 gusting 2 19.4
2017-May-29 11:07 125 0 gusting 2 19.4
2017-May-29 10:58 097 0 gusting 3 20.0
2017-May-29 10:49 095 19.4
2017-May-29 10:40 114 18.9
2017-May-29 10:31 101 18.9
2017-May-29 10:22 068 0 gusting 2 18.9
2017-May-29 10:13 084 18.3
2017-May-29 10:04 106 18.3
2017-May-29 09:55 109 0 gusting 2 18.3
2017-May-29 09:46 120 18.3
2017-May-29 09:37 102 17.8
2017-May-29 09:28 101 1 gusting 2 17.8
2017-May-29 09:19 093 0 gusting 2 17.2
2017-May-29 09:10 091 16.1
2017-May-29 09:01 113 0 gusting 2 15.6
2017-May-29 08:52 099 0 gusting 2 15.6
2017-May-29 08:43 089 15.6
2017-May-29 08:34 096 1 gusting 2 15.0
2017-May-29 08:25 114 0 gusting 1 15.0
2017-May-29 08:16 132 15.0
2017-May-29 08:07 116 15.0
2017-May-29 07:58 128 14.4
2017-May-29 07:49 099 14.4
2017-May-29 07:40 105 1 gusting 2 13.9
2017-May-29 07:31 129 13.9
2017-May-29 07:22 091 13.3
2017-May-29 07:13 099 13.3
2017-May-29 07:04 097 13.3
2017-May-29 06:55 117 13.3
2017-May-29 06:46 117 0 gusting 1 13.3
2017-May-29 06:37 113 13.3
2017-May-29 06:28 090 13.3
2017-May-29 06:19 090 12.8
2017-May-29 06:10 090 12.8
2017-May-29 06:01 088 12.8
2017-May-29 05:52 093 12.8
2017-May-29 05:43 104 12.8
2017-May-29 05:34 110 12.8
2017-May-29 05:25 084 12.8
2017-May-29 05:16 090 13.3
2017-May-29 05:07 090 13.3
2017-May-29 04:58 106 0 gusting 1 13.3
2017-May-29 04:49 135 13.3
2017-May-29 04:40 090 13.3
2017-May-29 04:31 135 12.8
2017-May-29 04:22 095 12.8
2017-May-29 04:13 090 13.3
2017-May-29 04:04 090 12.8
2017-May-29 03:55 090 12.8
2017-May-29 03:46 094 0 gusting 1 13.3
2017-May-29 03:37 090 13.3
2017-May-29 03:28 090 13.3
2017-May-29 03:19 13.3
2017-May-29 03:10 13.3
2017-May-29 03:01 13.3
2017-May-29 02:52 13.3
2017-May-29 02:43 090 13.3
2017-May-29 02:34 090 13.3
2017-May-29 02:25 100 13.3
2017-May-29 02:16 090 13.3
2017-May-29 02:07 090 13.3
2017-May-29 01:58 084 13.9
2017-May-29 01:49 094 13.9
2017-May-29 01:40 225 13.3
2017-May-29 01:31 084 13.3
2017-May-29 01:22 091 13.3
2017-May-29 01:13 091 0 gusting 1 13.3
2017-May-29 01:04 220 13.9
2017-May-29 00:55 116 0 gusting 1 13.9
2017-May-29 00:46 102 13.9
2017-May-29 00:37 270 13.9
2017-May-29 00:28 205 13.9
2017-May-29 00:19 100 13.9
2017-May-29 00:10 090 14.4
2017-May-29 00:01 231 14.4
2017-May-28 23:52 152 14.4
2017-May-28 23:43 151 14.4
2017-May-28 23:34 135 14.4
2017-May-28 23:25 104 15.0
2017-May-28 23:16 098 15.0
2017-May-28 23:07 094 0 gusting 4 15.6
2017-May-28 22:58 114 1 gusting 2 15.6
2017-May-28 22:49 092 1 gusting 2 15.6
2017-May-28 22:40 125 15.6
2017-May-28 22:31 108 0 gusting 3 15.6
2017-May-28 22:22 104 15.6
2017-May-28 22:13 097 16.1
2017-May-28 22:04 099 16.1
2017-May-28 21:55 080 16.7
2017-May-28 21:46 114 16.7
2017-May-28 21:37 097 16.7
2017-May-28 21:28 110 16.7
2017-May-28 21:19 099 17.2
2017-May-28 21:10 088 17.2
2017-May-28 21:01 125 2 gusting 6 17.2
2017-May-28 20:52 104 0 gusting 1 17.8
2017-May-28 20:43 093 18.3
2017-May-28 20:34 087 18.3
2017-May-28 20:25 135 18.3
2017-May-28 20:16 122 18.9
2017-May-28 20:07 118 18.9
2017-May-28 19:58 124 0 gusting 3 19.4
2017-May-28 19:49 096 20.0
2017-May-28 19:40 243 20.0
2017-May-28 19:31 232 20.0
2017-May-28 19:22 172 20.0
2017-May-28 19:13 113 20.6
2017-May-28 19:04 129 0 gusting 1 21.1
2017-May-28 18:55 111 0 gusting 1 21.7
2017-May-28 18:46 100 21.7
2017-May-28 18:37 093 0 gusting 2 21.7
2017-May-28 18:28 115 22.8
2017-May-28 18:19 132 23.3
2017-May-28 18:10 100 22.8
2017-May-28 18:01 116 22.8
2017-May-28 17:52 103 23.3
2017-May-28 17:43 099 24.4
2017-May-28 17:34 083 1 gusting 3 24.4
2017-May-28 17:25 090 23.3
2017-May-28 17:16 091 22.2
2017-May-28 17:07 095 22.2
2017-May-28 16:58 090 22.2
2017-May-28 16:49 095 22.2
2017-May-28 16:40 090 21.7
2017-May-28 16:31 096 21.7
2017-May-28 16:22 111 21.7
2017-May-28 16:13 105 21.7
2017-May-28 16:04 090 21.7
2017-May-28 15:55 090 21.7
2017-May-28 15:46 080 0 gusting 2 21.7
2017-May-28 15:37 168 22.2
2017-May-28 15:28 133 0 gusting 4 22.2
2017-May-28 15:19 095 1 gusting 4 22.8
2017-May-28 15:10 090 1 gusting 3 23.3
2017-May-28 15:01 080 0 gusting 2 23.3
2017-May-28 14:52 082 1 gusting 2 23.9
2017-May-28 14:43 095 23.3
2017-May-28 14:34 107 0 gusting 1 23.3
2017-May-28 14:25 102 23.3
2017-May-28 14:16 098 0 gusting 3 23.9
2017-May-28 14:07 161 1 gusting 1 24.4
2017-May-28 13:58 109 24.4
2017-May-28 13:49 082 0 gusting 3 23.9
2017-May-28 13:40 096 1 gusting 6 23.3
2017-May-28 13:31 106 23.3
2017-May-28 13:22 074 0 gusting 3 23.3
2017-May-28 13:13 095 23.3
2017-May-28 13:04 120 1 gusting 3 23.3
2017-May-28 12:55 193 1 gusting 3 23.3
2017-May-28 12:46 103 22.8
2017-May-28 12:37 103 1 gusting 4 22.2
2017-May-28 12:28 127 22.8
2017-May-28 12:19 149 22.8
2017-May-28 12:10 096 23.3
2017-May-28 12:01 084 0 gusting 3 22.8
2017-May-28 11:52 107 0 gusting 3 22.8
2017-May-28 11:43 100 1 gusting 2 22.8
2017-May-28 11:34 118 0 gusting 1 22.2
2017-May-28 11:25 122 0 gusting 1 22.2
2017-May-28 11:16 114 0 gusting 1 21.7
2017-May-28 11:07 070 21.1
2017-May-28 10:58 131 0 gusting 3 21.1
2017-May-28 10:49 135 21.1
2017-May-28 10:40 107 21.1
2017-May-28 10:31 098 21.1
2017-May-28 10:22 159 21.1
2017-May-28 10:13 111 21.1
2017-May-28 10:04 102 20.6
2017-May-28 09:55 169 20.6
2017-May-28 09:46 222 19.4
2017-May-28 09:37 248 1 gusting 1 18.9
2017-May-28 09:28 223 18.9
2017-May-28 09:19 127 18.3
2017-May-28 09:10 135 18.3
2017-May-28 09:01 135 18.3
2017-May-28 08:52 213 18.3
2017-May-28 08:43 165 18.3
2017-May-28 08:34 090 17.8
2017-May-28 08:25 090 17.8
2017-May-28 08:16 090 17.8
2017-May-28 08:07 090 17.8
2017-May-28 07:57 090 17.8
2017-May-28 07:48 090 17.8
2017-May-28 07:39 090 17.8
2017-May-28 07:30 090 17.8
2017-May-28 07:21 090 17.2
2017-May-28 07:12 101 17.2
2017-May-28 07:03 110 16.7
2017-May-28 06:54 090 16.7
2017-May-28 06:45 104 16.7
2017-May-28 06:36 190 17.2
2017-May-28 06:27 178 17.2
2017-May-28 06:18 215 16.7
2017-May-28 06:09 105 16.7
2017-May-28 06:00 090 16.7
2017-May-28 05:51 083 16.7
2017-May-28 05:42 135 16.7
2017-May-28 05:33 095 16.7
2017-May-28 05:24 095 16.7
2017-May-28 05:15 088 16.7
2017-May-28 05:06 209 16.7
2017-May-28 04:57 225 16.7
2017-May-28 04:48 219 16.7
2017-May-28 04:39 203 16.7
2017-May-28 04:30 225 16.7
2017-May-28 04:21 090 16.7
2017-May-28 04:12 090 16.7
2017-May-28 04:03 098 16.7
2017-May-28 03:54 090 16.7
2017-May-28 03:45 083 16.7
2017-May-28 03:36 120 16.7
2017-May-28 03:27 106 0 gusting 1 17.2
2017-May-28 03:18 204 17.2
2017-May-28 03:09 090 17.2
2017-May-28 03:00 101 17.2
2017-May-28 02:51 135 17.2
2017-May-28 02:42 135 17.2
2017-May-28 02:33 168 17.2
2017-May-28 02:24 132 17.2
2017-May-28 02:15 100 17.2
2017-May-28 02:06 045 17.8
2017-May-28 01:57 052 17.8
2017-May-28 01:48 17.2
2017-May-28 01:39 104 17.2
2017-May-28 01:30 090 17.8
2017-May-28 01:21 131 17.8
2017-May-28 01:12 135 18.3
2017-May-28 01:03 18.3
2017-May-28 00:54 225 17.8
2017-May-28 00:45 135 17.8
2017-May-28 00:36 135 17.8
2017-May-28 00:27 090 17.8
2017-May-28 00:18 090 17.8
2017-May-28 00:09 17.8
2017-May-28 00:00 090 18.3
2017-May-27 23:51 090 18.3
2017-May-27 23:42 090 18.3
2017-May-27 23:33 101 18.3
2017-May-27 23:24 135 18.3
2017-May-27 23:15 167 18.9
2017-May-27 23:06 109 18.9
2017-May-27 22:57 122 19.4
2017-May-27 22:48 154 18.9
2017-May-27 22:39 108 19.4
2017-May-27 22:30 115 19.4
2017-May-27 22:21 181 20.0
2017-May-27 22:12 181 20.0
2017-May-27 22:03 181 20.6
2017-May-27 21:54 225 20.6
2017-May-27 21:45 181 20.6
2017-May-27 21:36 181 20.6
2017-May-27 20:10 243 22.2
2017-May-27 20:01 234 22.2
2017-May-27 19:52 192 22.2
2017-May-27 19:43 211 22.8
2017-May-27 19:34 186 0 gusting 1 23.3
2017-May-27 19:25 158 23.3
2017-May-27 19:16 090 23.9
2017-May-27 19:06 090 24.4
2017-May-27 18:57 090 24.4
2017-May-27 18:48 090 24.4
2017-May-27 18:39 090 25.0
2017-May-27 18:30 090 25.0
2017-May-27 18:21 090 25.0
2017-May-27 18:12 100 25.6
2017-May-27 18:03 114 25.6
2017-May-27 17:54 099 0 gusting 1 25.6
2017-May-27 17:45 081 26.1
2017-May-27 17:36 072 1 gusting 4 26.1
2017-May-27 17:27 101 0 gusting 2 26.7
2017-May-27 17:18 109 0 gusting 2 26.7
2017-May-27 17:09 104 27.8
2017-May-27 17:00 103 0 gusting 1 28.3
2017-May-27 16:51 090 0 gusting 1 27.8
2017-May-27 16:42 099 26.7
2017-May-27 16:33 112 26.7
2017-May-27 16:24 086 26.1
2017-May-27 16:15 098 26.1
2017-May-27 16:06 145 1 gusting 3 26.1
2017-May-27 15:57 159 0 gusting 3 26.7
2017-May-27 15:48 099 0 gusting 3 26.7
2017-May-27 15:39 128 1 gusting 5 26.7
2017-May-27 15:30 056 1 gusting 6 27.2
2017-May-27 15:21 108 1 gusting 6 27.8
2017-May-27 15:12 097 1 gusting 4 28.3
2017-May-27 15:03 124 27.8
2017-May-27 14:54 088 1 gusting 3 28.3
2017-May-27 14:45 093 27.8
2017-May-27 14:36 088 0 gusting 3 28.3
2017-May-27 14:27 137 0 gusting 2 27.8
2017-May-27 14:18 135 0 gusting 6 26.7
2017-May-27 14:09 099 3 gusting 6 26.7
2017-May-27 14:00 112 26.7
2017-May-27 13:51 125 0 gusting 3 26.1
2017-May-27 13:42 127 1 gusting 4 25.6
2017-May-27 13:33 098 26.1
2017-May-27 13:24 159 25.6
2017-May-27 13:15 097 0 gusting 2 25.6
2017-May-27 13:06 093 0 gusting 1 26.1